Weather History for KLVJ - May, 2013

Change the Weather History Date:

Sunday, May 12, 2013

  Actual Average (KHOU) Record (KHOU)
Temperature  
Mean Temperature 73 °F 76 °F  
Max Temperature 81 °F 85 °F 92 °F (1967)
Min Temperature 66 °F 67 °F 50 °F (1895)
Cooling Degree Days 8 11  
Month to date cooling degree days 117  
Year to date cooling degree days 398  
Growing Degree Days 23 (Base 50)    
Moisture  
Dew Point 56 °F    
Average Humidity 57    
Maximum Humidity 75    
Minimum Humidity 35    
Precipitation  
Precipitation 0.00 in 0.16 in 5.27 in (1914)
Month to date precipitation 1.97  
Year to date precipitation 15.27  
Sea Level Pressure  
Sea Level Pressure 30.14 in    
Wind  
Wind Speed 6 mph (NE)    
Max Wind Speed 16 mph    
Max Gust Speed 21 mph    
Visibility 10 miles    
Events      
T = Trace of Precipitation, MM = Missing Value Source: NWS Daily Summary

Daily Weather History Graph

Daily Weather History Graph

Search for Another Location

Airport or City:

Trip Planner

Search our weather history database for the weather conditions in past years. The results will help you decide how hot, cold, wet, or windy it might be!

Date:

Astronomy

May. 12, 2013 Rise Set
Actual Time 6:30 AM CDT 8:04 PM CDT
Civil Twilight 6:04 AM CDT 8:30 PM CDT
Nautical Twilight 5:33 AM CDT 9:01 PM CDT
Astronomical Twilight 5:01 AM CDT 9:34 PM CDT
Moon 8:28 AM CDT (5/12) 10:30 PM CDT (5/12)
Length of Visible Light 14h 26m
Length of Day
13h 34m
Waxing Crescent, 7% of the Moon is Illuminated
May 12
Waxing Crescent
May 17
First Quarter
May 24
Full
May 31
Last Quarter
Jun 8
New

Hourly Weather History & Observations

Time (CDT) Temp. Heat Index Dew Point Humidity Pressure Visibility Wind Dir Wind Speed Gust Speed Precip Events Conditions
12:53 AM 70.0 °F - 55.0 °F 59% 30.09 in 10.0 mi North 5.8 mph - N/A   Clear
1:53 AM 69.1 °F - 55.9 °F 63% 30.10 in 10.0 mi NNE 4.6 mph - N/A   Clear
2:53 AM 69.1 °F - 55.9 °F 63% 30.09 in 10.0 mi NNE 3.5 mph - N/A   Clear
3:53 AM 68.0 °F - 57.0 °F 68% 30.10 in 10.0 mi NNE 4.6 mph - N/A   Clear
4:53 AM 66.9 °F - 57.0 °F 70% 30.09 in 10.0 mi NE 5.8 mph - N/A   Clear
5:53 AM 66.0 °F - 57.9 °F 75% 30.09 in 10.0 mi NNE 6.9 mph - N/A   Clear
6:53 AM 66.0 °F - 57.9 °F 75% 30.13 in 10.0 mi North 4.6 mph - N/A   Clear
7:53 AM 68.0 °F - 59.0 °F 73% 30.16 in 10.0 mi NNE 4.6 mph - N/A   Clear
8:53 AM 71.1 °F - 60.1 °F 68% 30.17 in 10.0 mi ENE 6.9 mph - N/A   Clear
9:53 AM 73.9 °F - 60.1 °F 62% 30.18 in 10.0 mi East 6.9 mph - N/A   Clear
10:53 AM 77.0 °F - 55.9 °F 48% 30.18 in 10.0 mi NE 9.2 mph - N/A   Clear
11:53 AM 80.1 °F - 50.0 °F 35% 30.18 in 10.0 mi NNE 16.1 mph 20.7 mph N/A   Clear
12:53 PM 78.1 °F - 55.9 °F 46% 30.17 in 10.0 mi NNE 9.2 mph 17.3 mph N/A   Clear
1:53 PM 78.1 °F - 55.9 °F 46% 30.17 in 10.0 mi NNE 6.9 mph - N/A   Clear
2:53 PM 78.1 °F - 55.9 °F 46% 30.15 in 10.0 mi NNE 9.2 mph - N/A   Clear
3:53 PM 78.1 °F - 55.9 °F 46% 30.12 in 10.0 mi East 6.9 mph - N/A   Clear
4:53 PM 80.1 °F 80.1 °F 55.0 °F 42% 30.12 in 10.0 mi ENE 5.8 mph - N/A   Clear
5:53 PM 80.1 °F 80.0 °F 54.0 °F 40% 30.12 in 10.0 mi ENE 6.9 mph - N/A   Clear
6:53 PM 78.1 °F - 55.0 °F 45% 30.10 in 10.0 mi ENE 6.9 mph - N/A   Clear
7:53 PM 75.0 °F - 55.9 °F 51% 30.12 in 10.0 mi NE 5.8 mph - N/A   Clear
8:53 PM 72.0 °F - 57.0 °F 59% 30.15 in 10.0 mi NE 5.8 mph - N/A   Clear
9:53 PM 70.0 °F - 57.0 °F 63% 30.17 in 10.0 mi NE 5.8 mph - N/A   Clear
10:53 PM 68.0 °F - 57.0 °F 68% 30.19 in 10.0 mi Calm Calm - N/A   Clear
11:53 PM 66.0 °F - 55.0 °F 68% 30.19 in 10.0 mi NE 5.8 mph - N/A   Clear